Previsão horária em Plevlya

Hoje, 8 Março, Segunda-feira

Tempo Temperatura Precipitação Vento Pressão Humidade
00:00 -2°C° 0 mm 1 m/s 666 mmHg 87%
01:00 -2°C° 0 mm 1 m/s 666 mmHg 87%
02:00 -2°C° 0 mm 1 m/s 665 mmHg 84%
03:00 -2°C° 0 mm 1 m/s 665 mmHg 82%
04:00 -2°C° 0 mm 1 m/s 665 mmHg 79%
05:00 -2°C° 0 mm 1 m/s 665 mmHg 76%
06:00 -1°C° 0 mm 1 m/s 665 mmHg 72%
07:00 -1°C° 0 mm 1 m/s 664 mmHg 68%
08:00 +1°C° 0 mm 1 m/s 665 mmHg 66%
09:00 +4°C° 0 mm 1 m/s 666 mmHg 63%
10:00 +6°C° 0 mm 1 m/s 666 mmHg 60%
11:00 +6°C° 0 mm 1 m/s 666 mmHg 63%
12:00 +6°C° 0 mm 1 m/s 666 mmHg 66%
13:00 +6°C° 0 mm 1 m/s 666 mmHg 69%
14:00 +5°C° 0 mm 0 m/s 666 mmHg 70%
15:00 +5°C° 0 mm 0 m/s 665 mmHg 71%
16:00 +4°C° 0 mm 0 m/s 665 mmHg 72%
17:00 +3°C° 0 mm 0 m/s 665 mmHg 75%
18:00 +2°C° 0 mm 0 m/s 665 mmHg 79%
19:00 +1°C° 0 mm 0 m/s 665 mmHg 82%
20:00 +1°C° 0 mm 0 m/s 665 mmHg 83%
21:00 +1°C° 0 mm 1 m/s 665 mmHg 83%
22:00 +1°C° 0 mm 1 m/s 665 mmHg 84%
23:00 +1°C° 0 mm 1 m/s 665 mmHg 84%

Amanhã, 9 Março, Terça-feira

Tempo Temperatura Precipitação Vento Pressão Humidade
00:00 0°C° 0 mm 1 m/s 665 mmHg 84%
01:00 0°C° 0 mm 1 m/s 665 mmHg 85%
02:00 0°C° 0 mm 1 m/s 665 mmHg 85%
03:00 0°C° 0 mm 1 m/s 665 mmHg 84%
04:00 0°C° 0 mm 1 m/s 665 mmHg 84%
05:00 0°C° 0 mm 1 m/s 665 mmHg 83%
06:00 0°C° 0 mm 1 m/s 665 mmHg 82%
07:00 0°C° 0 mm 1 m/s 665 mmHg 81%
08:00 +1°C° 0 mm 1 m/s 665 mmHg 77%
09:00 +2°C° 0 mm 1 m/s 665 mmHg 73%
10:00 +4°C° 0 mm 1 m/s 666 mmHg 69%
11:00 +4°C° 0 mm 1 m/s 666 mmHg 69%
12:00 +5°C° 0 mm 1 m/s 665 mmHg 70%
13:00 +5°C° 0 mm 1 m/s 665 mmHg 71%
14:00 +4°C° 0.6 mm 1 m/s 665 mmHg 78%
15:00 +4°C° 0.6 mm 1 m/s 664 mmHg 85%
16:00 +3°C° 0.6 mm 1 m/s 663 mmHg 93%
17:00 +2°C° 1.1 mm 1 m/s 663 mmHg 94%
18:00 +2°C° 1.1 mm 1 m/s 663 mmHg 96%
19:00 +2°C° 1.1 mm 1 m/s 663 mmHg 98%
20:00 +1°C° 1.3 mm 1 m/s 663 mmHg 98%
21:00 +1°C° 1.3 mm 1 m/s 663 mmHg 98%
22:00 +1°C° 1.3 mm 1 m/s 663 mmHg 98%
23:00 +1°C° 2.4 mm 1 m/s 663 mmHg 98%

Depois de amanhã, 10 Março, Quarta-feira

Tempo Temperatura Precipitação Vento Pressão Humidade
00:00 +1°C° 2.4 mm 1 m/s 662 mmHg 98%
01:00 +1°C° 2.4 mm 1 m/s 662 mmHg 98%
02:00 0°C° 2.2 mm 1 m/s 662 mmHg 98%
03:00 -2°C° 2.2 mm 2 m/s 662 mmHg 98%
04:00 -2°C° 2.2 mm 2 m/s 662 mmHg 98%
05:00 -2°C° 0.8 mm 2 m/s 662 mmHg 97%
06:00 -3°C° 0.8 mm 2 m/s 663 mmHg 97%
07:00 -3°C° 0.8 mm 2 m/s 663 mmHg 96%
08:00 -2°C° 0.2 mm 2 m/s 664 mmHg 95%
09:00 -2°C° 0.2 mm 2 m/s 664 mmHg 94%
10:00 -1°C° 0.2 mm 2 m/s 665 mmHg 92%
11:00 -1°C° 0.1 mm 2 m/s 665 mmHg 92%
12:00 +1°C° 0.1 mm 2 m/s 665 mmHg 91%
13:00 +1°C° 0.1 mm 2 m/s 665 mmHg 90%
14:00 +1°C° 0.2 mm 2 m/s 665 mmHg 90%
15:00 +1°C° 0.2 mm 2 m/s 665 mmHg 90%
16:00 -1°C° 0.2 mm 2 m/s 665 mmHg 90%
17:00 -2°C° 0.1 mm 2 m/s 665 mmHg 91%
18:00 -1°C° 0.1 mm 1 m/s 665 mmHg 93%
19:00 -3°C° 0.1 mm 1 m/s 666 mmHg 95%
20:00 -3°C° 0.1 mm 1 m/s 666 mmHg 95%
21:00 -3°C° 0.1 mm 1 m/s 667 mmHg 96%
22:00 -4°C° 0.1 mm 1 m/s 667 mmHg 96%
23:00 -4°C° 0 mm 1 m/s 667 mmHg 96%

11 Março, Quinta-feira

Tempo Temperatura Precipitação Vento Pressão Humidade
00:00 -6°C° 0 mm 1 m/s 667 mmHg 96%
01:00 -6°C° 0 mm 1 m/s 667 mmHg 96%
02:00 -6°C° 0 mm 1 m/s 668 mmHg 96%
03:00 -6°C° 0 mm 1 m/s 668 mmHg 96%
04:00 -6°C° 0 mm 1 m/s 668 mmHg 96%
05:00 -6°C° 0 mm 1 m/s 668 mmHg 95%
06:00 -6°C° 0 mm 1 m/s 668 mmHg 94%
07:00 -6°C° 0 mm 1 m/s 669 mmHg 93%
08:00 -3°C° 0 mm 1 m/s 669 mmHg 87%
09:00 -1°C° 0 mm 0 m/s 670 mmHg 81%
10:00 +1°C° 0 mm 0 m/s 670 mmHg 75%
11:00 +2°C° 0 mm 0 m/s 670 mmHg 75%
12:00 +2°C° 0 mm 0 m/s 670 mmHg 75%
13:00 +3°C° 0 mm 0 m/s 670 mmHg 74%
14:00 +4°C° 0 mm 1 m/s 670 mmHg 76%
15:00 +4°C° 0 mm 1 m/s 670 mmHg 77%
16:00 +4°C° 0 mm 1 m/s 669 mmHg 79%
17:00 +2°C° 0 mm 1 m/s 669 mmHg 78%
18:00 0°C° 0 mm 1 m/s 669 mmHg 78%
19:00 -1°C° 0 mm 1 m/s 669 mmHg 77%
20:00 -1°C° 0 mm 1 m/s 669 mmHg 77%
21:00 -1°C° 0 mm 1 m/s 669 mmHg 76%
22:00 -1°C° 0 mm 1 m/s 669 mmHg 75%
23:00 -3°C° 0 mm 2 m/s 668 mmHg 76%

12 Março, Sexta-feira

Tempo Temperatura Precipitação Vento Pressão Humidade
00:00 -3°C° 0 mm 2 m/s 668 mmHg 76%
01:00 -3°C° 0 mm 2 m/s 668 mmHg 77%
02:00 -3°C° 0 mm 2 m/s 668 mmHg 77%
03:00 -3°C° 0 mm 2 m/s 667 mmHg 76%
04:00 -3°C° 0 mm 2 m/s 667 mmHg 76%
05:00 -3°C° 0 mm 2 m/s 668 mmHg 77%
06:00 0°C° 0 mm 1 m/s 668 mmHg 77%
07:00 0°C° 0 mm 1 m/s 668 mmHg 78%
08:00 +2°C° 0 mm 1 m/s 668 mmHg 78%
09:00 +3°C° 0 mm 1 m/s 669 mmHg 78%
10:00 +5°C° 0 mm 1 m/s 669 mmHg 79%
11:00 +6°C° 0 mm 1 m/s 669 mmHg 78%
12:00 +6°C° 0 mm 1 m/s 669 mmHg 78%
13:00 +7°C° 0 mm 1 m/s 669 mmHg 77%
14:00 +6°C° 0 mm 1 m/s 669 mmHg 81%
15:00 +6°C° 0 mm 1 m/s 668 mmHg 84%
16:00 +4°C° 0 mm 2 m/s 668 mmHg 87%
17:00 +4°C° 0 mm 1 m/s 667 mmHg 89%
18:00 +3°C° 0 mm 1 m/s 667 mmHg 90%
19:00 +1°C° 0 mm 1 m/s 667 mmHg 91%
20:00 +1°C° 0 mm 1 m/s 667 mmHg 90%
21:00 +1°C° 0 mm 1 m/s 667 mmHg 89%
22:00 0°C° 0 mm 1 m/s 666 mmHg 89%
23:00 0°C° 0 mm 1 m/s 666 mmHg 87%

13 Março, Sábado

Tempo Temperatura Precipitação Vento Pressão Humidade
00:00 0°C° 0 mm 1 m/s 666 mmHg 86%
01:00 -1°C° 0 mm 1 m/s 666 mmHg 85%
02:00 -1°C° 0 mm 1 m/s 666 mmHg 83%
03:00 -1°C° 0 mm 1 m/s 665 mmHg 82%
04:00 -1°C° 0 mm 1 m/s 665 mmHg 80%
05:00 0°C° 0 mm 1 m/s 665 mmHg 80%
06:00 0°C° 0 mm 1 m/s 665 mmHg 80%
07:00 +1°C° 0 mm 1 m/s 665 mmHg 80%
08:00 +2°C° 0 mm 1 m/s 666 mmHg 80%
09:00 +4°C° 0 mm 1 m/s 666 mmHg 80%
10:00 +6°C° 0 mm 1 m/s 666 mmHg 80%
11:00 +6°C° 0 mm 1 m/s 666 mmHg 80%
12:00 +6°C° 0 mm 2 m/s 666 mmHg 81%
13:00 +6°C° 0 mm 2 m/s 665 mmHg 81%
14:00 +6°C° 0 mm 2 m/s 665 mmHg 83%
15:00 +5°C° 0 mm 2 m/s 664 mmHg 86%
16:00 +6°C° 0 mm 1 m/s 664 mmHg 88%
17:00 +5°C° 0 mm 1 m/s 663 mmHg 91%
18:00 +4°C° 0 mm 1 m/s 663 mmHg 93%
19:00 +3°C° 0 mm 1 m/s 663 mmHg 96%
20:00 +3°C° 0 mm 1 m/s 663 mmHg 96%
21:00 +2°C° 0 mm 1 m/s 663 mmHg 96%
22:00 +2°C° 0 mm 1 m/s 663 mmHg 96%
23:00 +2°C° 0 mm 1 m/s 663 mmHg 96%
Mostrar mais

Necessitamos do seu Consentimento

A Meteoprog e os seus Fornecedores de Serviços podem armazenar e aceder a dados pessoais como cookies, identificadores do dispositivo ou outras tecnologias semelhantes existentes no seu dispositivo e processar estes dados para personalizar conteúdos e anúncios, assim como funcionalidades nas redes sociais e análise de tráfego.

  • Armazenar e/ou aceder a informações no seu dispositivo

    Os cookies, identificadores do dispositivo ou outras informações podem ser armazenados ou acedidos no seu dispositivo, para os fins acima indicados.

  • Anúncios e conteúdos personalizados, medição de anúncios e conteúdos, dados sobre o público-alvo e desenvolvimento de produtos

    Os anúncios e os conteúdos podem ser personalizados com base num perfil. Podem ser adicionados dados adicionais para uma maior personalização dos anúncios e dos conteúdos. A eficácia dos anúncios e dos conteúdos pode ser medida. Podem ser obtidas informações sobre o público que visualizou os anúncios e os conteúdos. Estes dados podem ser usados para desenvolver ou melhorar sistemas, softwares ou a experiência do utilizador.

Ao clicar em "Eu concordo”, permitirá o uso de cookies, identificadores do dispositivo e web beacons mencionados ou outras tecnologias semelhantes. As configurações do navegador do seu dispositivo podem ser alteradas.

Para certos fins, podem ser invocados interesses legítimos ao invés de consentimento. Pode ler mais informação sobre este assunto na nossa Política de Privacidade e Cookies.